This is the latest recevied weather packets stored in our database for station/object WD9EKA. If no packets are shown the sender has not sent any weather packets the latest 10 day(s).
| Time | Temp. | Humidity | Pressure | Rain* | Wind** | Luminosity | Snow |
|---|---|---|---|---|---|---|---|
| 1787500853 | 25.56° C | 62% | 1012.5 hPa | 0 mm | - | - | - |
| 1787500533 | 25.56° C | 63% | 1012.8 hPa | 0 mm | - | - | - |
| 1787500214 | 25° C | 62% | 1012.6 hPa | 0 mm | - | - | - |
| 1787499893 | 25° C | 67% | 1012.5 hPa | 0 mm | - | - | - |
| 1787499574 | 24.44° C | 69% | 1012.5 hPa | 0 mm | - | - | - |
| 1787499254 | 24.44° C | 66% | 1012.7 hPa | 0 mm | - | - | - |
| 1787498934 | 24.44° C | 69% | 1012.5 hPa | 0 mm | - | - | - |
| 1787498614 | 23.89° C | 70% | 1012.6 hPa | 0 mm | - | - | - |
| 1787498293 | 23.89° C | 68% | 1012.4 hPa | 0 mm | - | - | - |
| 1787497973 | 23.89° C | 69% | 1012.3 hPa | 0 mm | - | - | - |
| 1787497654 | 23.33° C | 75% | 1012.4 hPa | 0 mm | - | - | - |
| 1787497333 | 23.33° C | 74% | 1012 hPa | 0 mm | - | - | - |
| 1787497014 | 23.33° C | 72% | 1012.2 hPa | 0 mm | - | - | - |
| 1787496693 | 23.33° C | 73% | 1012 hPa | 0 mm | - | - | - |
| 1787496373 | 22.78° C | 75% | 1012.3 hPa | 0 mm | - | - | - |
| 1787496054 | 22.78° C | 75% | 1012.1 hPa | 0 mm | - | - | - |
| 1787495734 | 22.78° C | 74% | 1012.1 hPa | 0 mm | - | - | - |
| 1787495429 | 22.22° C | 74% | 1012.4 hPa | 0 mm | - | - | - |
| 1787495110 | 22.22° C | 76% | 1012 hPa | 0 mm | - | - | - |
| 1787494790 | 21.67° C | 77% | 1012.1 hPa | 0 mm | - | - | - |
| 1787494470 | 21.67° C | 76% | 1012.3 hPa | 0 mm | - | - | - |
| 1787494149 | 21.67° C | 78% | 1012.2 hPa | 0 mm | - | - | - |
| 1787493830 | 21.67° C | 79% | 1012.3 hPa | 0 mm | - | - | - |
| 1787493510 | 21.11° C | 81% | 1012.3 hPa | 0 mm | - | - | - |
| 1787493190 | 20.56° C | 82% | 1012.1 hPa | 0 mm | - | - | - |
* Rain latest hour (hover to see other rain measurements)
** Current wind speed in m/s (hover to see current wind gust speed)